Weather History for Casper, WY

Change the Weather History Date:

Sunday, January 22, 2012

  Actual Average Record
Temperature  
Mean Temperature 25 °F 25 °F  
Max Temperature 34 °F 35 °F 56 °F (1981)
Min Temperature 16 °F 15 °F -19 °F (1963)
Degree Days  
Heating Degree Days 40 40  
Month to date heating degree days 825 885  
Since 1 July heating degree days 3725 4014  
Cooling Degree Days 0 0  
Month to date cooling degree days 0 0  
Year to date cooling degree days 0 0  
Moisture  
Dew Point 25 °F    
Average Humidity 78    
Maximum Humidity 92    
Minimum Humidity 63    
Precipitation  
Precipitation 0.28 in 0.02 in 0.28 in (2012)
Month to date precipitation 0.56 0.36  
Year to date precipitation 0.56 0.36  
Snow  
Snow 1.90 in 0.30 in - ()
Month to date snowfall 6.8 6.5  
Since 1 July snowfall 33.5 37.0  
Snow Depth 2.00 in    
Sea Level Pressure  
Sea Level Pressure 29.64 in    
Wind  
Wind Speed 12 mph (WNW)    
Max Wind Speed 20 mph    
Max Gust Speed 35 mph    
Visibility 6 miles    
Events Rain , Snow    
T = Trace of Precipitation, MM = Missing Value Source: NWS Daily Summary

Daily Weather History Graph

Daily Weather History Graph

Search for Another Location

Airport:

Trip Planner

Search our weather history database for the weather conditions in past years. The results will help you decide how hot, cold, wet, or windy it might be!

Date:

Astronomy

Jan. 22, 2012 Rise Set
Actual Time 7:30 AM MST 5:05 PM MST
Civil Twilight 6:59 AM MST 5:36 PM MST
Nautical Twilight 6:24 AM MST 6:10 PM MST
Astronomical Twilight 5:50 AM MST 6:44 PM MST
Moon 6:48 AM MST 4:50 PM MST
Length of Visible Light 10h 36m
Length of Day
9h 35m
Waning Crescent, 0% of the Moon is Illuminated
Jan 22
Waning Crescent
Jan 23
New
Jan 30
First Quarter
Feb 7
Full
Feb 14
Last Quarter

Hourly Weather History & Observations

Time (MST) Temp. Windchill Dew Point Humidity Pressure Visibility Wind Dir Wind Speed Gust Speed Precip Events Conditions
12:01 AM 33.8 °F 26.4 °F 30.2 °F 87% 29.31 in 7.0 mi West 9.2 mph - 0.01 in Snow Light Snow
12:08 AM 33.8 °F 27.0 °F 30.2 °F 87% 29.31 in 6.0 mi West 8.1 mph - 0.01 in Snow Light Snow
12:17 AM 33.8 °F 27.7 °F 30.2 °F 87% 29.32 in 7.0 mi West 6.9 mph - 0.02 in Snow Light Snow
12:51 AM 33.8 °F 23.9 °F 30.2 °F 87% 29.33 in 10.0 mi WNW 15.0 mph - 0.04 in Rain Light Rain
12:53 AM 34.0 °F 24.2 °F 30.9 °F 89% 29.29 in 9.0 mi WNW 15.0 mph - 0.04 in Rain Light Rain
1:27 AM 33.8 °F 25.8 °F 30.2 °F 87% 29.34 in 9.0 mi NW 10.4 mph - 0.02 in Snow Light Snow
1:42 AM 33.8 °F 25.3 °F 30.2 °F 87% 29.36 in 2.5 mi NNW 11.5 mph - 0.03 in Snow Light Snow
1:53 AM 33.1 °F 24.4 °F 30.9 °F 92% 29.36 in 1.8 mi NNW 11.5 mph - 0.04 in Snow Light Snow
2:24 AM 33.8 °F 25.3 °F 30.2 °F 87% 29.39 in 3.0 mi WNW 11.5 mph - 0.03 in Snow Light Snow
2:40 AM 33.8 °F 24.8 °F 30.2 °F 87% 29.40 in 5.0 mi NW 12.7 mph - 0.04 in Snow Light Snow
2:50 AM 33.8 °F 25.8 °F 30.2 °F 87% 29.41 in 4.0 mi NNW 10.4 mph - 0.04 in Snow Light Snow
2:53 AM 33.1 °F 24.4 °F 30.9 °F 92% 29.42 in 4.0 mi NNW 11.5 mph - 0.05 in Snow Light Snow
3:00 AM 33.8 °F 26.4 °F 30.2 °F 87% 29.42 in 3.0 mi NNW 9.2 mph - 0.00 in Snow Light Snow
3:24 AM 33.8 °F 28.6 °F 30.2 °F 87% 29.44 in 2.5 mi NNW 5.8 mph - 0.00 in Snow Light Snow
3:40 AM 33.8 °F 28.6 °F 30.2 °F 87% 29.46 in 1.5 mi NNW 5.8 mph - N/A Snow Light Snow
3:53 AM 33.8 °F 27.7 °F 30.2 °F 87% 29.47 in 1.2 mi NNW 6.9 mph - N/A Snow Light Snow
4:10 AM 33.8 °F 24.3 °F 30.2 °F 87% 29.49 in 0.8 mi North 13.8 mph - 0.02 in Snow Light Snow
4:53 AM 30.9 °F 18.7 °F 28.9 °F 92% 29.55 in 1.0 mi North 19.6 mph 25.3 mph 0.06 in Snow Light Snow
5:04 AM 30.2 °F 18.1 °F 28.4 °F 93% 29.55 in 0.8 mi North 18.4 mph - 0.01 in Snow Light Snow
5:53 AM 28.9 °F 16.9 °F 27.0 °F 92% 29.62 in 0.8 mi North 17.3 mph - 0.05 in Snow Light Snow
6:04 AM 28.4 °F 15.4 °F 26.6 °F 93% 29.61 in 1.0 mi NNE 19.6 mph - 0.00 in Snow Light Snow
6:10 AM 28.4 °F 17.5 °F 26.6 °F 93% 29.61 in 2.0 mi NNE 13.8 mph - 0.00 in Snow Light Snow
6:19 AM 28.4 °F 18.5 °F 26.6 °F 93% 29.62 in 8.0 mi NNE 11.5 mph - 0.00 in Snow Light Snow
6:34 AM 28.4 °F 21.2 °F 26.6 °F 93% 29.64 in 9.0 mi NNE 6.9 mph - 0.00 in Snow Light Snow
6:53 AM 28.9 °F 20.4 °F 25.0 °F 85% 29.68 in 3.0 mi NNE 9.2 mph - 0.00 in Snow Light Snow
7:15 AM 28.4 °F 22.2 °F 24.8 °F 86% 29.68 in 2.5 mi NNE 5.8 mph - 0.00 in Snow Light Snow
7:24 AM 28.4 °F 22.2 °F 24.8 °F 86% 29.68 in 1.5 mi NE 5.8 mph - 0.00 in Snow Light Snow
7:32 AM 28.4 °F 23.3 °F 24.8 °F 86% 29.69 in 3.0 mi NNE 4.6 mph - 0.01 in Snow Light Snow
7:42 AM 28.4 °F - 24.8 °F 86% 29.70 in 4.0 mi Calm Calm - 0.01 in Snow Light Snow
7:53 AM 28.0 °F - 25.0 °F 88% 29.73 in 5.0 mi Calm Calm - 0.01 in Snow Light Snow
8:37 AM 28.4 °F 23.3 °F 26.6 °F 93% 29.74 in 8.0 mi SSW 4.6 mph - 0.00 in   Overcast
8:53 AM 28.4 °F 23.3 °F 26.6 °F 93% 29.74 in 3.0 mi South 4.6 mph - N/A Snow Light Snow
9:02 AM 28.4 °F 23.3 °F 26.6 °F 93% 29.75 in 6.0 mi South 4.6 mph - 0.00 in   Mostly Cloudy
9:14 AM 28.4 °F 22.2 °F 26.6 °F 93% 29.75 in 10.0 mi South 5.8 mph - 0.00 in   Scattered Clouds
9:22 AM 26.6 °F 20.0 °F 24.8 °F 93% 29.75 in 10.0 mi South 5.8 mph - 0.00 in   Overcast
9:53 AM 28.0 °F 22.8 °F 25.0 °F 88% 29.81 in 10.0 mi South 4.6 mph - 0.00 in   Mostly Cloudy
10:53 AM 30.9 °F 22.8 °F 25.0 °F 79% 29.81 in 10.0 mi NW 9.2 mph - N/A   Overcast
11:53 AM 30.0 °F 21.7 °F 21.0 °F 69% 29.83 in 10.0 mi West 9.2 mph - N/A   Overcast
12:53 PM 28.9 °F 19.2 °F 19.9 °F 69% 29.83 in 10.0 mi West 11.5 mph - N/A   Overcast
1:53 PM 28.9 °F 19.8 °F 21.0 °F 72% 29.83 in 10.0 mi WSW 10.4 mph - N/A   Partly Cloudy
2:53 PM 30.0 °F 19.1 °F 19.0 °F 64% 29.84 in 10.0 mi West 15.0 mph - N/A   Overcast
3:53 PM 27.0 °F 17.3 °F 19.0 °F 72% 29.88 in 10.0 mi WSW 10.4 mph - N/A   Clear
4:53 PM 25.0 °F 10.9 °F 16.0 °F 69% 29.91 in 10.0 mi WSW 19.6 mph - N/A   Clear
5:53 PM 21.9 °F 10.4 °F 14.0 °F 72% 29.95 in 10.0 mi WSW 11.5 mph - N/A   Clear
6:53 PM 19.0 °F 6.1 °F 10.9 °F 71% 29.97 in 10.0 mi WSW 12.7 mph - N/A   Clear
7:53 PM 19.0 °F 4.5 °F 10.0 °F 68% 29.97 in 10.0 mi WSW 16.1 mph - N/A   Clear
8:53 PM 19.9 °F 4.3 °F 12.0 °F 71% 29.96 in 10.0 mi SW 19.6 mph - N/A   Clear
9:53 PM 21.0 °F 6.2 °F 12.0 °F 68% 29.96 in 10.0 mi SW 18.4 mph - N/A   Clear
10:53 PM 23.0 °F 9.2 °F 12.9 °F 65% 29.93 in 10.0 mi SW 17.3 mph - N/A   Clear
11:53 PM 24.1 °F 11.0 °F 14.0 °F 65% 29.92 in 10.0 mi SW 16.1 mph - N/A   Clear